Tracking 29892 objects as of 21-Nov-2024
HD Live streaming from Space Station
objects crossing your sky now

COSMOS 1275 DEB

Track COSMOS 1275 DEB now!
10-day predictions


NORAD ID: 42229
Int'l Code: 1981-053UV
Perigee: 926.3 km
Apogee: 1,252.4 km
Inclination: 83.0 °
Period: 106.9 minutes
Semi major axis: 7460 km
RCS: Unknown
Launch date: June 4, 1981
Source: Commonwealth of Independent States (former USSR) (CIS)
Launch site: PLESETSK MISSILE AND SPACE COMPLEX (PKMTR)

Note: This is SATELLITE DEBRIS
Your satellite tracking list
Your tracking list is empty




NASA's NSSDC Master Catalog

Two Line Element Set (TLE):
1 42229U 81053UV  24322.55206649  .00001340  00000-0  18826-2 0  9991
2 42229  83.0199  54.6184 0218581 355.1472   4.7546 13.47293724539297
Source of the keplerian elements: AFSPC